Regional Weather Roundup
Issued by NWS

Home | Current Version | Previous Version | Text Only | Print | Product List | Glossary Off
Versions: 1 2 3 4 5 6 7 8 9 10 11 12 13 14 15 16 17 18 19 20 21 22 23 24 25 26 27

000
ASUS45 KCYS 231110
RWRWY

WYOMING REGIONAL WEATHER ROUNDUP
NATIONAL WEATHER SERVICE CHEYENNE WY
500 AM MDT SAT JUL 23 2016

NOTE:  "FAIR" INDICATES FEW OR NO CLOUDS BELOW 12,000 FEET
WITH NO SIGNIFICANT WEATHER AND/OR OBSTRUCTIONS TO VISIBILITY.

WYZ001-231200-
YELLOWSTONE NATIONAL PARK

CITY           SKY/WX    TMP DP  RH WIND       PRES   REMARKS
LK YELLOWSTONE   N/A     39  25  57 NW3       30.31S
W YELLOWSTONE  NOT AVBL

$$
WYZ002>013-054>058-071-098>099-231200-
NORTHERN WYOMING

CITY           SKY/WX    TMP DP  RH WIND       PRES   REMARKS
JACKSON        FAIR      54  27  35 S6        30.21S
CODY           FAIR      63  39  42 NW9       30.11R
GREYBULL       FAIR      71  41  33 N7        29.95R
WORLAND        FAIR      65  41  41 VRB5      30.00R
SHERIDAN       FAIR      67  41  38 NW9       30.06R
BUFFALO        FAIR      68  37  32 NW25G41   30.08R
GILLETTE       FAIR      65  49  56 NW18G26   29.98R
HULETT         FAIR      73  54  49 SW14      29.93S
NEWCASTLE      FAIR      68  52  56 SE10      29.94F

$$
WYZ014>020-022>026-101>103-231200-
CENTRAL WYOMING

CITY           SKY/WX    TMP DP  RH WIND       PRES   REMARKS
BIG PINEY      FAIR      43  26  51 CALM      30.27S
PINEDALE       FAIR      37  36  93 W7        30.29S WCI  32
DUBOIS         FAIR      46  21  36 CALM      30.22S
LANDER         FAIR      64  37  36 NW10      30.09R
RIVERTON       FAIR      64  33  31 SW5       30.09S
CASPER         FAIR      69  44  40 SW12      30.05F
DOUGLAS          N/A    N/A N/A N/A MISG      30.02F

$$
WYZ021-027>030-104>119-231200-
SOUTHERN WYOMING

CITY           SKY/WX    TMP DP  RH WIND       PRES   REMARKS
EVANSTON       FAIR      59  33  37 NE3       30.29F
KEMMERER         N/A     54  27  35 N5        30.30S
FORT BRIDGER   FAIR      57  35  44 W10       30.30F
ROCK SPRINGS   FAIR      60  36  40 W10       30.25R
DIXON          FAIR      55  46  73 CALM      30.27F
RAWLINS        FAIR      66  41  40 SW12      30.21S
SARATOGA       FAIR      63  41  45 SE9       30.25F
LARAMIE        FAIR      62  41  46 S8        30.24F
CHEYENNE       FAIR      66  44  45 SW12      30.13F
TORRINGTON     FAIR      62  59  90 CALM      29.96S
PINE BLUFFS    FAIR      64  55  72 W5        30.05F

$$




USA.gov is the U.S. government's official web portal to all federal, state and local government web resources and services.